Wind_Speed
3 3 1 2 3 5 7 8 10 12 13 15 16 17 18 19 19 19 19 19 18 18 17 16 15 13 11 10 10 11 12 13 15 17 18 20 22 24 25 25 26 27 27
4 3 2 2 3 5 6 8 10 12 13 14 16 17 18 18 19 19 19 19 18 17 17 16 14 12 10 9 9 9 10 11 13 15 17 18 20 23 24 24 24 25 26
4 3 2 2 4 5 6 8 9 11 13 14 16 17 18 18 19 19 19 19 18 17 17 16 14 12 10 9 8 8 8 9 11 13 15 17 18 20 23 23 24 24 26
4 3 3 3 4 5 6 7 9 11 12 14 15 16 17 18 19 19 19 19 18 17 16 16 14 13 11 9 8 7 7 8 9 11 13 16 17 19 21 22 23 23 25
5 4 3 4 5 6 6 7 9 10 12 13 15 16 17 18 19 19 19 19 18 17 16 15 14 13 11 9 7 6 6 7 8 10 11 14 16 18 20 21 21 21 23
4 4 4 4 5 6 7 8 9 10 11 13 15 16 16 17 18 19 19 19 19 17 16 15 14 13 11 9 7 5 5 6 7 8 10 12 14 16 18 19 20 21 22
4 4 5 5 6 7 7 8 9 9 11 13 14 15 16 17 18 18 19 19 19 18 16 15 14 13 11 9 6 4 4 4 5 7 8 10 13 15 17 18 19 20 21
4 5 6 6 7 7 7 8 8 9 10 12 13 14 15 16 17 18 18 19 19 18 17 16 15 13 11 9 6 4 3 3 4 5 6 8 11 14 15 17 18 19 21
5 6 7 7 8 8 8 8 8 9 10 11 13 14 14 15 16 17 18 18 18 18 17 16 15 13 11 9 7 5 3 2 2 4 5 6 9 11 13 15 16 18 19
5 6 7 8 8 8 8 8 9 9 10 11 12 13 13 14 15 16 17 18 18 17 17 16 15 14 12 10 8 6 4 2 1 3 4 5 7 9 11 13 15 16 17
7 7 8 8 8 9 8 9 9 10 10 11 11 12 13 13 14 15 16 17 17 17 17 16 15 14 12 10 8 7 5 3 2 1 2 4 5 7 10 12 13 15 16
8 9 9 9 9 9 9 9 10 10 10 11 11 12 12 13 13 14 15 16 16 16 16 16 15 14 12 10 9 7 6 4 3 2 1 2 3 5 8 10 12 13 15
9 10 10 10 10 11 11 11 11 11 11 11 11 11 11 12 13 13 14 14 15 16 16 16 15 14 13 11 9 8 6 4 4 3 2 3 3 4 6 8 10 11 13
11 11 11 11 11 12 12 12 12 12 12 11 11 11 11 12 12 12 13 13 14 15 15 15 15 14 13 12 10 8 7 5 4 4 3 3 4 5 6 7 8 9 11
12 13 13 13 13 13 13 13 13 13 13 12 12 12 12 12 12 12 12 13 13 13 14 14 14 13 13 12 10 9 7 6 5 4 4 3 4 5 6 7 8 9 10
13 14 14 15 15 15 14 14 14 14 14 13 13 13 13 13 12 12 12 12 12 12 13 13 13 13 13 12 11 10 8 7 6 5 5 4 4 5 6 7 8 9 10
14 15 16 16 16 16 16 16 15 15 15 15 15 14 14 14 13 13 13 12 12 12 12 13 12 12 12 12 11 10 9 8 7 6 6 5 5 5 6 7 8 9 10
15 16 16 17 17 17 17 17 17 17 17 16 16 16 15 15 15 14 14 13 13 12 12 12 12 12 12 12 11 11 10 9 8 8 6 6 6 6 6 7 8 10 11
17 17 17 17 18 18 19 19 19 18 18 18 17 17 17 17 16 15 15 14 14 13 13 13 12 12 12 12 11 11 11 10 9 9 8 7 7 7 7 8 9 10 10
19 19 19 19 19 19 20 20 20 20 20 20 19 19 19 19 18 17 16 16 15 15 14 14 13 13 13 12 12 12 11 11 10 10 9 9 8 9 9 9 10 10 11
21 22 22 22 22 22 22 22 22 22 22 22 22 21 21 21 20 19 18 18 17 16 16 15 15 14 14 13 13 13 12 12 11 11 11 11 11 11 11 11 11 12 12
24 25 25 24 24 25 24 24 24 24 25 25 24 24 23 23 22 21 21 20 19 19 18 17 16 16 16 15 15 14 14 14 13 13 12 12 12 13 13 13 14 14 14
27 28 28 27 27 27 27 26 26 26 27 26 26 26 26 25 25 24 23 22 22 21 20 20 19 18 17 17 16 16 15 15 15 15 15 15 14 14 15 15 15 16 16
31 31 31 30 30 29 29 29 29 29 29 29 28 28 28 27 27 26 25 25 24 23 23 22 21 20 20 19 18 18 17 17 17 17 17 17 16 16 17 17 17 18 18
35 35 34 33 33 32 32 32 31 31 31 31 31 31 30 30 29 29 28 27 27 26 25 24 24 23 22 21 21 20 20 19 19 19 19 19 19 19 19 19 19 19 19
38 38 37 37 36 36 35 35 34 34 34 34 34 33 33 32 32 31 30 30 29 28 27 27 26 25 25 24 24 23 22 22 22 21 21 21 21 21 21 21 21 21 21
Wind_Direction
204 203 230 317 340 345 350 350 347 348 350 350 351 350 349 349 347 346 344 342 340 337 335 332 326 318 305 291 280 267 257 247 239 234 229 225 222 219 218 221 222 222 221
215 212 248 307 330 338 343 342 342 344 346 348 350 351 351 350 349 349 348 346 344 343 341 338 334 325 313 300 286 274 259 249 240 234 229 225 221 218 217 220 221 220 220
216 229 261 304 321 331 334 335 336 340 345 347 350 351 352 353 352 351 351 349 348 346 345 343 340 337 325 309 292 278 263 250 239 233 227 224 220 219 217 219 220 219 218
220 239 269 299 316 325 325 328 334 338 342 345 348 351 353 354 355 354 353 353 352 351 349 348 344 340 333 321 305 284 264 247 237 231 226 221 221 219 217 218 218 217 217
222 235 266 294 311 320 321 326 332 337 342 346 350 351 353 355 356 357 358 357 355 354 352 351 348 343 337 328 315 290 266 247 237 232 226 221 219 215 216 217 217 216 217
225 243 268 288 303 312 318 323 328 335 341 346 349 351 353 356 358 359 0 0 359 356 354 353 351 349 345 339 328 300 269 247 236 230 226 224 219 214 215 217 218 218 218
237 257 272 284 295 304 311 316 323 332 339 344 347 349 352 356 358 360 1 2 1 360 358 358 355 353 352 348 339 316 273 245 232 228 225 224 220 214 214 217 219 220 219
253 265 272 278 286 293 301 308 316 326 334 340 345 348 351 355 358 360 1 3 4 4 4 2 1 359 358 356 349 337 295 248 237 229 226 225 220 215 213 216 220 222 222
264 269 271 275 281 286 294 302 310 320 329 336 341 345 349 353 357 359 1 4 6 6 7 6 6 4 3 3 1 352 330 281 243 231 231 226 222 215 213 216 219 221 223
274 276 277 278 280 284 291 298 305 314 323 331 337 343 346 350 355 358 1 4 6 7 8 8 8 9 8 7 6 4 356 346 300 238 227 229 223 215 215 216 218 219 223
278 285 285 283 282 284 289 294 300 307 315 324 332 338 343 347 352 355 359 2 5 8 9 10 10 11 12 13 12 8 3 356 349 257 224 224 220 216 215 216 219 221 225
271 276 280 282 282 284 285 289 294 301 308 317 325 332 338 344 348 352 355 359 3 6 8 9 11 12 12 11 12 10 6 359 349 334 267 236 227 224 220 220 220 223 225
276 274 275 278 279 280 282 284 288 295 302 309 316 324 331 338 342 346 350 354 358 3 5 7 9 11 12 12 11 11 8 4 352 335 307 270 255 245 233 226 224 225 226
279 276 275 276 278 279 279 280 283 287 294 301 307 314 322 330 336 340 344 348 352 358 2 4 6 7 9 11 11 9 8 3 353 340 319 289 264 252 243 235 231 230 230
279 277 276 277 279 279 277 276 278 282 287 292 298 305 312 320 326 331 335 340 345 350 355 359 1 3 5 7 7 6 5 359 348 340 323 302 277 262 251 240 238 239 237
282 279 277 278 277 277 276 275 276 278 281 286 290 296 303 310 315 320 325 330 335 340 346 351 354 357 359 0 360 358 356 355 347 335 322 307 293 277 261 250 248 247 246
284 279 277 277 277 275 274 274 274 275 277 280 284 289 294 300 305 310 315 320 325 329 334 339 344 347 350 353 353 351 348 343 339 335 328 313 302 285 271 264 258 254 252
283 281 279 278 277 275 273 273 273 274 275 277 279 282 287 291 296 301 305 309 314 319 324 328 333 337 340 341 344 345 343 339 334 331 327 318 309 301 285 276 269 261 257
281 280 280 280 278 276 274 273 273 273 274 275 276 277 280 284 289 293 297 300 304 308 313 318 322 325 328 330 332 333 333 332 329 325 321 318 311 305 295 286 279 272 264
277 278 279 279 278 276 274 273 273 273 273 273 274 274 276 279 282 286 289 292 296 299 302 306 310 314 317 319 321 322 323 323 321 317 312 309 305 300 297 293 288 282 274
276 276 277 278 278 276 275 274 273 272 272 272 272 272 273 275 277 280 283 286 288 291 293 296 299 303 306 308 311 312 313 314 313 311 308 303 300 298 296 293 289 284 281
276 276 276 277 277 277 276 274 273 271 271 271 271 271 272 273 275 277 279 281 283 284 286 288 291 294 297 299 302 304 306 306 306 305 305 302 298 295 295 294 290 286 283
276 275 275 275 275 276 276 274 272 270 270 269 269 269 270 271 272 274 275 277 279 280 281 282 284 287 291 293 295 297 299 301 300 300 300 300 299 297 295 294 293 289 286
275 275 273 273 273 273 274 273 272 270 269 268 267 267 268 269 271 272 273 273 275 277 277 278 280 282 285 287 289 291 293 295 295 296 296 296 296 296 295 294 293 291 288
273 273 272 271 271 270 270 271 271 270 269 268 267 266 266 267 269 270 271 272 272 274 274 275 276 278 281 283 284 286 288 290 292 292 293 293 293 293 294 294 293 291 290
273 271 271 269 269 268 268 268 268 268 267 267 266 266 265 265 266 267 268 269 270 270 272 272 273 275 277 279 281 283 285 287 289 291 291 291 291 291 291 291 292 291 290
Height
5845 5845 5845 5845 5844 5844 5842 5841 5840 5837 5835 5832 5829 5825 5821 5817 5813 5809 5805 5801 5797 5794 5790 5787 5784 5782 5780 5779 5778 5778 5779 5779 5780 5782 5784 5787 5790 5793 5797 5801 5804 5808 5812
5844 5844 5844 5844 5843 5842 5841 5840 5839 5836 5834 5831 5828 5824 5820 5816 5812 5808 5803 5799 5795 5791 5788 5785 5782 5779 5777 5776 5775 5775 5775 5776 5777 5778 5780 5783 5786 5789 5793 5796 5800 5803 5807
5843 5843 5843 5842 5842 5841 5840 5839 5837 5835 5833 5830 5826 5823 5819 5815 5811 5806 5802 5798 5794 5790 5786 5783 5780 5777 5775 5774 5773 5772 5772 5772 5773 5775 5777 5780 5782 5785 5789 5792 5796 5799 5803
5841 5841 5841 5841 5841 5840 5839 5838 5836 5834 5832 5829 5825 5822 5818 5814 5810 5805 5801 5797 5793 5789 5785 5782 5778 5776 5774 5772 5770 5770 5769 5770 5771 5772 5774 5776 5779 5782 5785 5789 5792 5795 5799
5840 5840 5840 5840 5839 5839 5838 5837 5835 5833 5831 5827 5824 5821 5817 5813 5809 5804 5800 5796 5792 5788 5784 5781 5777 5775 5772 5770 5768 5768 5767 5768 5768 5769 5771 5773 5776 5778 5781 5785 5788 5792 5795
5838 5838 5838 5838 5838 5837 5836 5835 5833 5832 5829 5826 5823 5820 5816 5812 5808 5804 5800 5796 5791 5787 5783 5780 5777 5773 5771 5768 5767 5766 5766 5766 5766 5768 5769 5771 5773 5775 5778 5781 5785 5788 5791
5837 5837 5837 5836 5836 5835 5834 5833 5832 5830 5828 5825 5822 5819 5815 5811 5807 5803 5799 5795 5791 5787 5783 5779 5776 5773 5770 5768 5766 5765 5765 5765 5765 5766 5767 5769 5770 5773 5776 5778 5781 5784 5788
5835 5835 5835 5835 5834 5834 5833 5832 5830 5829 5826 5824 5821 5818 5814 5811 5807 5803 5799 5795 5791 5787 5783 5779 5776 5772 5770 5767 5766 5764 5764 5764 5764 5765 5766 5767 5768 5771 5773 5776 5778 5781 5784
5833 5833 5833 5833 5832 5832 5831 5830 5828 5827 5825 5823 5820 5817 5814 5810 5807 5803 5799 5795 5791 5787 5783 5779 5776 5773 5770 5768 5766 5764 5764 5763 5763 5764 5764 5765 5767 5768 5771 5773 5775 5778 5781
5831 5831 5831 5830 5830 5829 5829 5827 5826 5825 5823 5821 5819 5816 5813 5809 5806 5803 5799 5795 5791 5787 5784 5780 5776 5773 5770 5768 5766 5764 5764 5763 5763 5763 5764 5765 5766 5767 5769 5770 5773 5775 5778
5829 5829 5828 5828 5827 5827 5826 5825 5824 5823 5821 5819 5817 5814 5812 5809 5806 5802 5799 5795 5792 5788 5784 5781 5777 5774 5771 5768 5767 5765 5764 5763 5763 5763 5763 5764 5765 5766 5767 5769 5770 5772 5775
5826 5826 5826 5825 5825 5824 5823 5823 5822 5821 5819 5817 5815 5813 5810 5808 5805 5802 5799 5796 5792 5789 5785 5782 5778 5775 5772 5769 5767 5766 5764 5764 5763 5763 5763 5763 5764 5764 5765 5766 5768 5770 5772
5824 5823 5823 5822 5822 5821 5821 5820 5819 5818 5817 5815 5813 5811 5809 5807 5804 5801 5798 5795 5792 5789 5786 5782 5779 5776 5773 5770 5768 5766 5765 5764 5763 5763 5762 5762 5763 5763 5764 5765 5766 5767 5769
5820 5820 5820 5819 5819 5818 5817 5817 5816 5815 5814 5813 5811 5809 5807 5805 5802 5800 5797 5795 5792 5789 5786 5783 5779 5776 5774 5771 5769 5767 5765 5764 5763 5762 5762 5762 5762 5762 5763 5763 5764 5765 5767
5817 5816 5816 5816 5815 5815 5814 5813 5813 5812 5811 5810 5808 5807 5805 5803 5801 5798 5796 5794 5791 5788 5786 5783 5780 5777 5774 5771 5769 5767 5765 5764 5763 5762 5761 5761 5761 5761 5761 5762 5763 5764 5765
5813 5812 5812 5812 5811 5811 5810 5810 5809 5808 5807 5806 5805 5804 5802 5800 5799 5796 5794 5792 5790 5787 5785 5782 5780 5777 5774 5772 5769 5767 5766 5764 5763 5762 5761 5760 5760 5760 5760 5760 5761 5761 5762
5809 5808 5808 5808 5807 5806 5806 5805 5805 5804 5803 5802 5801 5800 5799 5797 5796 5794 5792 5790 5788 5786 5783 5781 5779 5776 5774 5771 5769 5767 5765 5764 5762 5761 5760 5759 5758 5758 5758 5758 5758 5759 5759
5805 5804 5803 5803 5802 5802 5801 5800 5800 5799 5799 5798 5797 5796 5795 5794 5792 5791 5789 5787 5785 5784 5782 5779 5777 5775 5773 5771 5768 5766 5765 5763 5761 5760 5758 5758 5757 5756 5756 5756 5756 5756 5756
5800 5799 5799 5798 5797 5797 5796 5795 5795 5794 5794 5793 5792 5791 5791 5790 5788 5787 5786 5784 5782 5781 5779 5777 5775 5773 5771 5769 5767 5765 5763 5761 5760 5758 5757 5756 5755 5754 5754 5753 5753 5753 5752
5795 5794 5793 5792 5792 5791 5790 5790 5789 5789 5788 5787 5787 5786 5785 5785 5784 5782 5781 5780 5778 5777 5776 5774 5772 5771 5769 5767 5765 5763 5761 5760 5758 5757 5755 5754 5753 5752 5751 5750 5750 5749 5749
5789 5788 5787 5786 5785 5785 5784 5784 5783 5783 5782 5781 5780 5780 5779 5779 5778 5777 5776 5775 5774 5773 5771 5770 5769 5767 5765 5764 5762 5760 5759 5757 5756 5754 5753 5751 5750 5749 5748 5747 5746 5746 5745
5782 5781 5780 5780 5779 5778 5777 5777 5776 5776 5775 5774 5774 5773 5773 5772 5772 5771 5770 5769 5768 5767 5766 5765 5764 5763 5761 5760 5758 5757 5755 5754 5752 5751 5749 5748 5747 5746 5745 5743 5742 5742 5741
5774 5773 5772 5772 5771 5770 5769 5769 5768 5767 5767 5767 5766 5766 5765 5765 5765 5764 5763 5763 5762 5761 5760 5760 5759 5757 5756 5755 5754 5753 5751 5750 5748 5747 5745 5744 5743 5742 5740 5739 5738 5737 5736
5764 5763 5763 5763 5762 5761 5760 5760 5759 5759 5758 5758 5758 5758 5757 5757 5757 5756 5756 5755 5755 5754 5754 5753 5752 5751 5751 5750 5748 5747 5746 5745 5743 5742 5741 5739 5738 5737 5735 5734 5733 5731 5730
5753 5753 5752 5752 5752 5751 5751 5750 5750 5749 5749 5748 5749 5748 5748 5748 5748 5748 5748 5747 5747 5747 5746 5746 5745 5745 5744 5743 5742 5741 5740 5739 5738 5736 5735 5734 5733 5731 5730 5728 5727 5725 5724
5741 5741 5740 5740 5740 5740 5739 5739 5739 5738 5738 5738 5738 5738 5738 5738 5738 5738 5739 5738 5738 5738 5738 5738 5737 5737 5736 5735 5735 5734 5733 5732 5731 5730 5729 5727 5726 5725 5723 5722 5720 5719 5718